DateTime, Accumulation (mm), Intensity (mm/hr), Interval_Days, Interval_Hours, Interval_Minutes 
2019-02-05 00:00:10, 0, 0, 0, 0, 6
2019-02-05 00:06:01, 0, 0, 0, 0, 6
2019-02-05 00:11:53, 0, 0, 0, 0, 6
2019-02-05 00:17:57, 0, 0, 0, 0, 6
2019-02-05 00:23:46, 0, 0, 0, 0, 6
2019-02-05 00:29:37, 0, 0, 0, 0, 6
2019-02-05 00:35:29, 0, 0, 0, 0, 6
2019-02-05 00:41:19, 0, 0, 0, 0, 6
2019-02-05 00:47:10, 0, 0, 0, 0, 6
2019-02-05 00:52:59, 0, 0, 0, 0, 6
2019-02-05 00:58:51, 4.63092e-05, 0.000463092, 0, 0, 6
2019-02-05 01:04:41, 4.62766e-05, 0.000462766, 0, 0, 6
2019-02-05 01:10:31, 0, 0, 0, 0, 6
2019-02-05 01:16:35, 0, 0, 0, 0, 6
2019-02-05 01:22:24, 0, 0, 0, 0, 6
2019-02-05 01:28:14, 3.22574e-05, 0.000322574, 0, 0, 6
2019-02-05 01:34:06, 7.29556e-05, 0.000729556, 0, 0, 6
2019-02-05 01:39:56, 0, 0, 0, 0, 6
2019-02-05 01:45:47, 0, 0, 0, 0, 6
2019-02-05 01:51:38, 1.5051e-05, 0.00015051, 0, 0, 6
2019-02-05 01:57:29, 3.0102e-05, 0.00030102, 0, 0, 6
2019-02-05 02:03:20, 1.49361e-05, 0.000149361, 0, 0, 6
2019-02-05 02:09:10, 0, 0, 0, 0, 6
2019-02-05 02:15:01, 4.52035e-05, 0.000452035, 0, 0, 6
2019-02-05 02:21:05, 2.06473e-05, 0.000206473, 0, 0, 6
2019-02-05 02:26:54, 0, 0, 0, 0, 6
2019-02-05 02:32:44, 1.60495e-05, 0.000160495, 0, 0, 6
2019-02-05 02:38:34, 0, 0, 0, 0, 6
2019-02-05 02:44:25, 0, 0, 0, 0, 6
2019-02-05 02:50:17, 0, 0, 0, 0, 6
2019-02-05 02:56:07, 0, 0, 0, 0, 6
2019-02-05 03:01:58, 0, 0, 0, 0, 6
2019-02-05 03:07:48, 0, 0, 0, 0, 6
2019-02-05 03:13:39, 0, 0, 0, 0, 6
2019-02-05 03:19:43, 0, 0, 0, 0, 6
2019-02-05 03:25:32, 0, 0, 0, 0, 6
2019-02-05 03:31:22, 0, 0, 0, 0, 6
2019-02-05 03:37:13, 0, 0, 0, 0, 6
2019-02-05 03:43:03, 0, 0, 0, 0, 6
2019-02-05 03:48:54, 0, 0, 0, 0, 6
2019-02-05 03:54:46, 0, 0, 0, 0, 6
2019-02-05 04:00:37, 0, 0, 0, 0, 6
2019-02-05 04:06:27, 0, 0, 0, 0, 6
2019-02-05 04:12:18, 0, 0, 0, 0, 6
2019-02-05 04:18:21, 0, 0, 0, 0, 6
2019-02-05 04:24:10, 0, 0, 0, 0, 6
2019-02-05 04:30:00, 0, 0, 0, 0, 6
2019-02-05 04:35:52, 0, 0, 0, 0, 6
2019-02-05 04:41:42, 0, 0, 0, 0, 6
2019-02-05 04:47:33, 0, 0, 0, 0, 6
2019-02-05 04:53:23, 0, 0, 0, 0, 6
2019-02-05 04:59:14, 0, 0, 0, 0, 6
2019-02-05 05:05:04, 0, 0, 0, 0, 6
2019-02-05 05:10:55, 0, 0, 0, 0, 6
2019-02-05 05:16:58, 0, 0, 0, 0, 6
2019-02-05 05:22:46, 0, 0, 0, 0, 6
2019-02-05 05:28:37, 0, 0, 0, 0, 6
2019-02-05 05:34:28, 0, 0, 0, 0, 6
2019-02-05 05:40:19, 0, 0, 0, 0, 6
2019-02-05 05:46:10, 0, 0, 0, 0, 6
2019-02-05 05:52:00, 0, 0, 0, 0, 6
2019-02-05 05:57:52, 0, 0, 0, 0, 6
2019-02-05 06:03:42, 0, 0, 0, 0, 6
2019-02-05 06:09:33, 0, 0, 0, 0, 6
2019-02-05 06:15:37, 0, 0, 0, 0, 6
2019-02-05 06:21:26, 0, 0, 0, 0, 6
2019-02-05 06:27:16, 0, 0, 0, 0, 6
2019-02-05 06:33:07, 0, 0, 0, 0, 6
2019-02-05 06:38:57, 0, 0, 0, 0, 6
2019-02-05 06:44:48, 0, 0, 0, 0, 6
2019-02-05 06:50:38, 0, 0, 0, 0, 6
2019-02-05 06:56:29, 0, 0, 0, 0, 6
2019-02-05 07:02:21, 0, 0, 0, 0, 6
2019-02-05 07:08:12, 0, 0, 0, 0, 6
2019-02-05 07:14:03, 0, 0, 0, 0, 6
2019-02-05 07:20:08, 0, 0, 0, 0, 6
2019-02-05 07:25:58, 0, 0, 0, 0, 6
2019-02-05 07:31:49, 0, 0, 0, 0, 6
2019-02-05 07:37:40, 0, 0, 0, 0, 6
2019-02-05 07:43:31, 0, 0, 0, 0, 6
2019-02-05 07:49:21, 0, 0, 0, 0, 6
2019-02-05 07:55:12, 0, 0, 0, 0, 6
2019-02-05 08:01:02, 0, 0, 0, 0, 6
2019-02-05 08:06:53, 0, 0, 0, 0, 6
2019-02-05 08:12:44, 0, 0, 0, 0, 6
2019-02-05 08:18:48, 0, 0, 0, 0, 6
2019-02-05 08:24:37, 0, 0, 0, 0, 6
2019-02-05 08:30:28, 0, 0, 0, 0, 6
2019-02-05 08:36:19, 0, 0, 0, 0, 6
2019-02-05 08:42:10, 0, 0, 0, 0, 6
2019-02-05 08:48:01, 0, 0, 0, 0, 6
2019-02-05 08:53:52, 0, 0, 0, 0, 6
2019-02-05 08:59:43, 0, 0, 0, 0, 6
2019-02-05 09:05:34, 0, 0, 0, 0, 6
2019-02-05 09:11:24, 0, 0, 0, 0, 6
2019-02-05 09:17:28, 0, 0, 0, 0, 6
2019-02-05 09:23:18, 0, 0, 0, 0, 6
2019-02-05 09:29:08, 0, 0, 0, 0, 6
2019-02-05 09:34:59, 0, 0, 0, 0, 6
2019-02-05 09:40:50, 0, 0, 0, 0, 6
2019-02-05 09:46:41, 0, 0, 0, 0, 6
2019-02-05 09:52:32, 0, 0, 0, 0, 6
2019-02-05 09:58:23, 0, 0, 0, 0, 6
2019-02-05 10:04:14, 0, 0, 0, 0, 6
2019-02-05 10:10:05, 0, 0, 0, 0, 6
2019-02-05 10:16:09, 0, 0, 0, 0, 6
2019-02-05 10:21:58, 0, 0, 0, 0, 6
2019-02-05 10:27:49, 0, 0, 0, 0, 6
2019-02-05 10:33:39, 0, 0, 0, 0, 6
2019-02-05 10:39:31, 0, 0, 0, 0, 6
2019-02-05 10:45:22, 0, 0, 0, 0, 6
2019-02-05 10:51:13, 0, 0, 0, 0, 6
2019-02-05 10:57:04, 0, 0, 0, 0, 6
2019-02-05 11:02:55, 0, 0, 0, 0, 6
2019-02-05 11:08:46, 0, 0, 0, 0, 6
2019-02-05 11:14:37, 0, 0, 0, 0, 6
2019-02-05 11:20:42, 0, 0, 0, 0, 6
2019-02-05 11:26:31, 0.000317203, 0.00317203, 0, 0, 6
2019-02-05 11:32:22, 0.000538221, 0.00538221, 0, 0, 6
2019-02-05 11:38:14, 0.000225364, 0.00225364, 0, 0, 6
2019-02-05 11:44:05, 0.000200888, 0.00200888, 0, 0, 6
2019-02-05 11:49:56, 0.00141442, 0.0141442, 0, 0, 6
2019-02-05 11:55:47, 0.00440363, 0.0440363, 0, 0, 6
2019-02-05 12:01:38, 0.00422967, 0.0422967, 0, 0, 6
2019-02-05 12:07:30, 0.000487729, 0.00487729, 0, 0, 6
2019-02-05 12:13:22, 0, 0, 0, 0, 6
2019-02-05 12:19:28, 2.12861e-05, 0.000212861, 0, 0, 6
2019-02-05 12:25:17, 2.02598e-05, 0.000202598, 0, 0, 6
2019-02-05 12:31:08, 0, 0, 0, 0, 6
2019-02-05 12:37:00, 0.000185207, 0.00185207, 0, 0, 6
2019-02-05 12:42:52, 0.000990794, 0.00990794, 0, 0, 6
2019-02-05 12:48:44, 0.0039326, 0.039326, 0, 0, 6
2019-02-05 12:54:36, 0.00731367, 0.0731367, 0, 0, 6
2019-02-05 13:00:29, 0.0067167, 0.067167, 0, 0, 6
2019-02-05 13:06:20, 0.00147391, 0.0147391, 0, 0, 6
2019-02-05 13:12:14, 0, 0, 0, 0, 6
2019-02-05 13:18:20, 1.65931e-05, 0.000165931, 0, 0, 6
2019-02-05 13:24:11, 0.00203741, 0.0203741, 0, 0, 6
2019-02-05 13:30:03, 0.010806, 0.10806, 0, 0, 6
2019-02-05 13:35:56, 0.0268515, 0.268515, 0, 0, 6
2019-02-05 13:41:50, 0.0469533, 0.469533, 0, 0, 6
2019-02-05 13:47:44, 0.0758945, 0.758945, 0, 0, 6
2019-02-05 13:53:37, 0.0978274, 0.978274, 0, 0, 6
2019-02-05 13:59:30, 0.092175, 0.92175, 0, 0, 6
2019-02-05 14:05:23, 0.0820651, 0.820651, 0, 0, 6
2019-02-05 14:11:17, 0.0794961, 0.794961, 0, 0, 6
2019-02-05 14:17:23, 0.0920539, 0.920539, 0, 0, 6
2019-02-05 14:23:14, 0.114405, 1.144052, 0, 0, 6
2019-02-05 14:29:07, 0.117066, 1.170663, 0, 0, 6
2019-02-05 14:34:59, 0.0924336, 0.924336, 0, 0, 6
2019-02-05 14:40:52, 0.0762398, 0.762398, 0, 0, 6
2019-02-05 14:46:45, 0.0484147, 0.484147, 0, 0, 6
2019-02-05 14:52:37, 0.0278182, 0.278182, 0, 0, 6
2019-02-05 14:58:30, 0.0243154, 0.243154, 0, 0, 6
2019-02-05 15:04:22, 0.0254793, 0.254793, 0, 0, 6
2019-02-05 15:10:15, 0.0188273, 0.188273, 0, 0, 6
2019-02-05 15:16:22, 0.0126754, 0.126754, 0, 0, 6
2019-02-05 15:22:13, 0.0219844, 0.219844, 0, 0, 6
2019-02-05 15:28:06, 0.0254586, 0.254586, 0, 0, 6
2019-02-05 15:33:58, 0.0338891, 0.338891, 0, 0, 6
2019-02-05 15:39:51, 0.0723217, 0.723217, 0, 0, 6
2019-02-05 15:45:43, 0.119508, 1.195075, 0, 0, 6
2019-02-05 15:51:35, 0.106063, 1.060630, 0, 0, 6
2019-02-05 15:57:28, 0.0702178, 0.702178, 0, 0, 6
2019-02-05 16:03:20, 0.064583, 0.64583, 0, 0, 6
2019-02-05 16:09:12, 0.161671, 1.616708, 0, 0, 6
2019-02-05 16:15:05, 0.200665, 2.006649, 0, 0, 6
2019-02-05 16:21:10, 0.0960425, 0.960425, 0, 0, 6
2019-02-05 16:27:01, 0.0288546, 0.288546, 0, 0, 6
2019-02-05 16:32:53, 0.0183422, 0.183422, 0, 0, 6
2019-02-05 16:38:46, 0.0169842, 0.169842, 0, 0, 6
2019-02-05 16:44:38, 0.00643612, 0.0643612, 0, 0, 6
2019-02-05 16:50:31, 0.0013543, 0.013543, 0, 0, 6
2019-02-05 16:56:24, 9.1722e-05, 0.00091722, 0, 0, 6
2019-02-05 17:02:16, 0, 0, 0, 0, 6
2019-02-05 17:08:09, 0.00101911, 0.0101911, 0, 0, 6
2019-02-05 17:14:01, 0.0121043, 0.121043, 0, 0, 6
2019-02-05 17:20:07, 0.0238728, 0.238728, 0, 0, 6
2019-02-05 17:25:59, 0.0329765, 0.329765, 0, 0, 6
2019-02-05 17:31:52, 0.0220228, 0.220228, 0, 0, 6
2019-02-05 17:37:46, 0.0010811, 0.010811, 0, 0, 6
2019-02-05 17:43:38, 0.00320404, 0.0320404, 0, 0, 6
2019-02-05 17:49:31, 0.0127579, 0.127579, 0, 0, 6
2019-02-05 17:55:24, 0.0210195, 0.210195, 0, 0, 6
2019-02-05 18:01:17, 0.014833, 0.14833, 0, 0, 6
2019-02-05 18:07:10, 0.0074953, 0.074953, 0, 0, 6
2019-02-05 18:13:03, 0.00547837, 0.0547837, 0, 0, 6
2019-02-05 18:19:07, 0.019934, 0.19934, 0, 0, 6
2019-02-05 18:24:57, 0.0222558, 0.222558, 0, 0, 6
2019-02-05 18:30:49, 0.0084095, 0.084095, 0, 0, 6
2019-02-05 18:36:41, 0.00502476, 0.0502476, 0, 0, 6
2019-02-05 18:42:32, 0.00377423, 0.0377423, 0, 0, 6
2019-02-05 18:48:24, 0.00266463, 0.0266463, 0, 0, 6
2019-02-05 18:54:15, 0.00474855, 0.0474855, 0, 0, 6
2019-02-05 19:00:06, 0.00453902, 0.0453902, 0, 0, 6
2019-02-05 19:05:58, 0.00293423, 0.0293423, 0, 0, 6
2019-02-05 19:11:49, 0.00136927, 0.0136927, 0, 0, 6
2019-02-05 19:17:54, 0.000140124, 0.00140124, 0, 0, 6
2019-02-05 19:23:44, 1.86684e-05, 0.000186684, 0, 0, 6
2019-02-05 19:29:37, 0.000492143, 0.00492143, 0, 0, 6
2019-02-05 19:35:31, 0.000445358, 0.00445358, 0, 0, 6
2019-02-05 19:41:24, 0.00102992, 0.0102992, 0, 0, 6
2019-02-05 19:47:19, 0.00514652, 0.0514652, 0, 0, 6
2019-02-05 19:53:12, 0.00936093, 0.0936093, 0, 0, 6
2019-02-05 19:59:06, 0.0124477, 0.124477, 0, 0, 6
2019-02-05 20:04:58, 0.0179041, 0.179041, 0, 0, 6
2019-02-05 20:10:51, 0.012334, 0.12334, 0, 0, 6
2019-02-05 20:16:59, 0.00251285, 0.0251285, 0, 0, 6
2019-02-05 20:22:51, 0.000359078, 0.00359078, 0, 0, 6
2019-02-05 20:28:45, 0.00255951, 0.0255951, 0, 0, 6
2019-02-05 20:34:38, 0.0479843, 0.479843, 0, 0, 6
2019-02-05 20:40:31, 0.0841792, 0.841792, 0, 0, 6
2019-02-05 20:46:25, 0.0629298, 0.629298, 0, 0, 6
2019-02-05 20:52:17, 0.0442907, 0.442907, 0, 0, 6
2019-02-05 20:58:09, 0.027227, 0.27227, 0, 0, 6
2019-02-05 21:04:02, 0.00866383, 0.0866383, 0, 0, 6
2019-02-05 21:09:55, 0.00917208, 0.0917208, 0, 0, 6
2019-02-05 21:16:01, 0.0233553, 0.233553, 0, 0, 6
2019-02-05 21:21:51, 0.0408524, 0.408524, 0, 0, 6
2019-02-05 21:27:43, 0.0854252, 0.854252, 0, 0, 6
2019-02-05 21:33:35, 0.109243, 1.092427, 0, 0, 6
2019-02-05 21:39:27, 0.0796638, 0.796638, 0, 0, 6
2019-02-05 21:45:19, 0.0323169, 0.323169, 0, 0, 6
2019-02-05 21:51:11, 0.00809632, 0.0809632, 0, 0, 6
2019-02-05 21:57:03, 0.015896, 0.15896, 0, 0, 6
2019-02-05 22:02:55, 0.0398919, 0.398919, 0, 0, 6
2019-02-05 22:08:46, 0.0470236, 0.470236, 0, 0, 6
2019-02-05 22:14:38, 0.0254913, 0.254913, 0, 0, 6
2019-02-05 22:20:43, 0.0166629, 0.166629, 0, 0, 6
2019-02-05 22:26:33, 0.0213766, 0.213766, 0, 0, 6
2019-02-05 22:32:26, 0.01434, 0.1434, 0, 0, 6
2019-02-05 22:38:17, 0.00260935, 0.0260935, 0, 0, 6
2019-02-05 22:44:10, 0.00564693, 0.0564693, 0, 0, 6
2019-02-05 22:50:01, 0.0110975, 0.110975, 0, 0, 6
2019-02-05 22:55:53, 0.0127949, 0.127949, 0, 0, 6
2019-02-05 23:01:45, 0.0116024, 0.116024, 0, 0, 6
2019-02-05 23:07:38, 0.00658791, 0.0658791, 0, 0, 6
2019-02-05 23:13:31, 0.00164156, 0.0164156, 0, 0, 6
2019-02-05 23:19:37, 0.000102893, 0.00102893, 0, 0, 6
2019-02-05 23:25:26, 0, 0, 0, 0, 6
2019-02-05 23:31:18, 0, 0, 0, 0, 6
2019-02-05 23:37:09, 0, 0, 0, 0, 6
2019-02-05 23:42:59, 0, 0, 0, 0, 6
2019-02-05 23:48:50, 0, 0, 0, 0, 6
2019-02-06 00:00:33, 0, 0, 0, 0, 6
2019-02-06 00:06:24, 3.20496e-05, 0.000320496, 0, 0, 6
2019-02-06 00:12:16, 3.2019e-05, 0.00032019, 0, 0, 6
2019-02-06 00:18:20, 0, 0, 0, 0, 6
2019-02-06 00:24:10, 0, 0, 0, 0, 6
2019-02-06 00:30:02, 0, 0, 0, 0, 6
2019-02-06 00:35:53, 0, 0, 0, 0, 6
2019-02-06 00:41:44, 0, 0, 0, 0, 6
2019-02-06 00:47:36, 0, 0, 0, 0, 6
2019-02-06 00:53:28, 0, 0, 0, 0, 6
2019-02-06 00:59:19, 0, 0, 0, 0, 6
2019-02-06 01:05:11, 0, 0, 0, 0, 6
2019-02-06 01:11:02, 0, 0, 0, 0, 6
2019-02-06 01:17:08, 0, 0, 0, 0, 6
2019-02-06 01:22:57, 0, 0, 0, 0, 6
2019-02-06 01:28:47, 0, 0, 0, 0, 6
2019-02-06 01:34:39, 0, 0, 0, 0, 6
2019-02-06 01:40:30, 0, 0, 0, 0, 6
2019-02-06 01:46:20, 0, 0, 0, 0, 6
2019-02-06 01:52:10, 1.54701e-05, 0.000154701, 0, 0, 6
2019-02-06 01:58:01, 6.52205e-05, 0.000652205, 0, 0, 6
2019-02-06 02:03:52, 1.51345e-05, 0.000151345, 0, 0, 6
2019-02-06 02:09:43, 0, 0, 0, 0, 6
2019-02-06 02:15:48, 0, 0, 0, 0, 6
2019-02-06 02:21:37, 0, 0, 0, 0, 6
2019-02-06 02:27:27, 0, 0, 0, 0, 6
2019-02-06 02:33:18, 1.74243e-05, 0.000174243, 0, 0, 6
2019-02-06 02:39:09, 1.75078e-05, 0.000175078, 0, 0, 6
2019-02-06 02:45:00, 0, 0, 0, 0, 6
2019-02-06 02:50:51, 0, 0, 0, 0, 6
2019-02-06 02:56:41, 0, 0, 0, 0, 6
2019-02-06 03:02:32, 5.76267e-05, 0.000576267, 0, 0, 6
2019-02-06 03:08:23, 5.77037e-05, 0.000577037, 0, 0, 6
2019-02-06 03:14:14, 0, 0, 0, 0, 6
2019-02-06 03:20:19, 0, 0, 0, 0, 6
2019-02-06 03:26:08, 0, 0, 0, 0, 6
2019-02-06 03:31:59, 0, 0, 0, 0, 6
2019-02-06 03:37:50, 0, 0, 0, 0, 6
2019-02-06 03:43:42, 0, 0, 0, 0, 6
2019-02-06 03:49:32, 0, 0, 0, 0, 6
2019-02-06 03:55:23, 0, 0, 0, 0, 6
2019-02-06 04:01:15, 0, 0, 0, 0, 6
2019-02-06 04:07:06, 0, 0, 0, 0, 6
2019-02-06 04:12:57, 0, 0, 0, 0, 6
2019-02-06 04:19:01, 5.64315e-05, 0.000564315, 0, 0, 6
2019-02-06 04:24:50, 7.15917e-05, 0.000715917, 0, 0, 6
2019-02-06 04:30:41, 0, 0, 0, 0, 6
2019-02-06 04:36:32, 0, 0, 0, 0, 6
2019-02-06 04:42:22, 3.11351e-05, 0.000311351, 0, 0, 6
2019-02-06 04:48:13, 1.42247e-05, 0.000142247, 0, 0, 6
2019-02-06 04:54:03, 4.05073e-05, 0.000405073, 0, 0, 6
2019-02-06 04:59:54, 1.94248e-05, 0.000194248, 0, 0, 6
2019-02-06 05:05:44, 1.59086e-05, 0.000159086, 0, 0, 6
2019-02-06 05:11:35, 3.74348e-05, 0.000374348, 0, 0, 6
2019-02-06 05:17:40, 3.63378e-05, 0.000363378, 0, 0, 6
2019-02-06 05:23:29, 1.6134e-05, 0.00016134, 0, 0, 6
2019-02-06 05:29:20, 0, 0, 0, 0, 6
2019-02-06 05:35:11, 0, 0, 0, 0, 6
2019-02-06 05:41:02, 1.74181e-05, 0.000174181, 0, 0, 6
2019-02-06 05:46:53, 7.90197e-05, 0.000790197, 0, 0, 6
2019-02-06 05:52:44, 4.03245e-05, 0.000403245, 0, 0, 6
2019-02-06 05:58:35, 0, 0, 0, 0, 6
2019-02-06 06:04:26, 0, 0, 0, 0, 6
2019-02-06 06:10:17, 2.91525e-05, 0.000291525, 0, 0, 6
2019-02-06 06:16:22, 7.2396e-05, 0.00072396, 0, 0, 6
2019-02-06 06:22:11, 0, 0, 0, 0, 6
2019-02-06 06:28:03, 6.30625e-05, 0.000630625, 0, 0, 6
2019-02-06 06:33:53, 6.27059e-05, 0.000627059, 0, 0, 6
2019-02-06 06:39:44, 0, 0, 0, 0, 6
2019-02-06 06:45:35, 2.96759e-05, 0.000296759, 0, 0, 6
2019-02-06 06:51:26, 2.96279e-05, 0.000296279, 0, 0, 6
2019-02-06 06:57:18, 0, 0, 0, 0, 6
2019-02-06 07:03:08, 3.23853e-05, 0.000323853, 0, 0, 6
2019-02-06 07:08:59, 3.2588e-05, 0.00032588, 0, 0, 6
2019-02-06 07:14:50, 0, 0, 0, 0, 6
2019-02-06 07:20:54, 0, 0, 0, 0, 6
2019-02-06 07:26:43, 0, 0, 0, 0, 6
2019-02-06 07:32:34, 0, 0, 0, 0, 6
2019-02-06 07:38:25, 0, 0, 0, 0, 6
2019-02-06 07:44:16, 0, 0, 0, 0, 6
2019-02-06 07:50:08, 0, 0, 0, 0, 6
2019-02-06 07:55:59, 0, 0, 0, 0, 6
2019-02-06 08:01:50, 0, 0, 0, 0, 6
2019-02-06 08:07:41, 0, 0, 0, 0, 6
2019-02-06 08:13:33, 0, 0, 0, 0, 6
2019-02-06 08:19:38, 0, 0, 0, 0, 6
2019-02-06 08:25:27, 0, 0, 0, 0, 6
2019-02-06 08:31:18, 0, 0, 0, 0, 6
2019-02-06 08:37:10, 0, 0, 0, 0, 6
2019-02-06 08:43:00, 0, 0, 0, 0, 6
2019-02-06 08:48:51, 0, 0, 0, 0, 6
2019-02-06 08:54:43, 0, 0, 0, 0, 6
2019-02-06 09:00:35, 0, 0, 0, 0, 6
2019-02-06 09:06:25, 0, 0, 0, 0, 6
2019-02-06 09:12:16, 0, 0, 0, 0, 6
2019-02-06 09:18:20, 0, 0, 0, 0, 6
2019-02-06 09:24:09, 0, 0, 0, 0, 6
2019-02-06 09:30:00, 0, 0, 0, 0, 6
2019-02-06 09:35:51, 0, 0, 0, 0, 6
2019-02-06 09:41:41, 0, 0, 0, 0, 6
2019-02-06 09:47:32, 0, 0, 0, 0, 6
2019-02-06 09:53:23, 0, 0, 0, 0, 6
2019-02-06 09:59:14, 0, 0, 0, 0, 6
2019-02-06 10:05:05, 0, 0, 0, 0, 6
2019-02-06 10:10:57, 0, 0, 0, 0, 6
2019-02-06 10:17:02, 0, 0, 0, 0, 6
2019-02-06 10:22:51, 0.000953238, 0.00953238, 0, 0, 6
2019-02-06 10:28:42, 0.00174209, 0.0174209, 0, 0, 6
2019-02-06 10:34:34, 0.0147834, 0.147834, 0, 0, 6
2019-02-06 10:40:25, 0.0830557, 0.830557, 0, 0, 6
2019-02-06 10:46:16, 0.116535, 1.165350, 0, 0, 6
2019-02-06 10:52:08, 0.0630665, 0.630665, 0, 0, 6
2019-02-06 10:57:59, 0.0187884, 0.187884, 0, 0, 6
2019-02-06 11:03:51, 0.00936157, 0.0936157, 0, 0, 6
2019-02-06 11:09:42, 0.00701745, 0.0701745, 0, 0, 6
2019-02-06 11:15:48, 0.00223291, 0.0223291, 0, 0, 6
2019-02-06 11:21:38, 3.87549e-05, 0.000387549, 0, 0, 6
2019-02-06 11:27:29, 0, 0, 0, 0, 6
2019-02-06 11:33:19, 0.000124751, 0.00124751, 0, 0, 6
2019-02-06 11:39:10, 0.00014426, 0.0014426, 0, 0, 6
2019-02-06 11:45:02, 3.30841e-05, 0.000330841, 0, 0, 6
2019-02-06 11:50:53, 0, 0, 0, 0, 6
2019-02-06 11:56:44, 0.000832852, 0.00832852, 0, 0, 6
2019-02-06 12:02:35, 0.00689539, 0.0689539, 0, 0, 6
2019-02-06 12:08:27, 0.0075724, 0.075724, 0, 0, 6
2019-02-06 12:14:19, 0.00630112, 0.0630112, 0, 0, 6
2019-02-06 12:20:23, 0.0168811, 0.168811, 0, 0, 6
2019-02-06 12:26:12, 0.0364108, 0.364108, 0, 0, 6
2019-02-06 12:32:04, 0.0573961, 0.573961, 0, 0, 6
2019-02-06 12:37:54, 0.0850132, 0.850132, 0, 0, 6
2019-02-06 12:43:46, 0.0790042, 0.790042, 0, 0, 6
2019-02-06 12:49:38, 0.0509008, 0.509008, 0, 0, 6
2019-02-06 12:55:29, 0.0820072, 0.820072, 0, 0, 6
2019-02-06 13:01:20, 0.062579, 0.62579, 0, 0, 6
2019-02-06 13:07:11, 0.00575631, 0.0575631, 0, 0, 6
2019-02-06 13:13:03, 3.41243e-05, 0.000341243, 0, 0, 6
2019-02-06 13:19:08, 0.000156855, 0.00156855, 0, 0, 6
2019-02-06 13:24:57, 0.000330099, 0.00330099, 0, 0, 6
2019-02-06 13:30:48, 0.000387267, 0.00387267, 0, 0, 6
2019-02-06 13:36:39, 0.000294888, 0.00294888, 0, 0, 6
2019-02-06 13:42:30, 0.00508504, 0.0508504, 0, 0, 6
2019-02-06 13:48:21, 0.0125487, 0.125487, 0, 0, 6
2019-02-06 13:54:14, 0.0101377, 0.101377, 0, 0, 6
2019-02-06 14:00:05, 0.0153533, 0.153533, 0, 0, 6
2019-02-06 14:05:57, 0.0141941, 0.141941, 0, 0, 6
2019-02-06 14:11:49, 0.00261681, 0.0261681, 0, 0, 6
2019-02-06 14:17:54, 0.000903407, 0.00903407, 0, 0, 6
2019-02-06 14:23:42, 0, 0, 0, 0, 6
2019-02-06 14:29:34, 0.000451956, 0.00451956, 0, 0, 6
2019-02-06 14:35:25, 0.00543452, 0.0543452, 0, 0, 6
2019-02-06 14:41:16, 0.00472256, 0.0472256, 0, 0, 6
2019-02-06 14:47:06, 2.29277e-05, 0.000229277, 0, 0, 6
2019-02-06 14:52:58, 0, 0, 0, 0, 6
2019-02-06 14:58:49, 0, 0, 0, 0, 6
2019-02-06 15:04:39, 0, 0, 0, 0, 6
2019-02-06 15:10:30, 0, 0, 0, 0, 6
2019-02-06 15:16:34, 0, 0, 0, 0, 6
2019-02-06 15:22:23, 0, 0, 0, 0, 6
2019-02-06 15:28:16, 0, 0, 0, 0, 6
2019-02-06 15:34:08, 0, 0, 0, 0, 6
2019-02-06 15:39:58, 0, 0, 0, 0, 6
2019-02-06 15:45:50, 0, 0, 0, 0, 6
2019-02-06 15:51:41, 4.46351e-05, 0.000446351, 0, 0, 6
2019-02-06 15:57:32, 4.49871e-05, 0.000449871, 0, 0, 6
2019-02-06 16:03:24, 0, 0, 0, 0, 6
2019-02-06 16:09:15, 3.28702e-05, 0.000328702, 0, 0, 6
2019-02-06 16:15:07, 3.29041e-05, 0.000329041, 0, 0, 6
2019-02-06 16:21:10, 0, 0, 0, 0, 6
2019-02-06 16:27:00, 0, 0, 0, 0, 6
2019-02-06 16:32:50, 0, 0, 0, 0, 6
2019-02-06 16:38:42, 0, 0, 0, 0, 6
2019-02-06 16:44:32, 0, 0, 0, 0, 6
2019-02-06 16:50:22, 0, 0, 0, 0, 6
2019-02-06 16:56:13, 0, 0, 0, 0, 6
2019-02-06 17:02:04, 0, 0, 0, 0, 6
2019-02-06 17:07:55, 0, 0, 0, 0, 6
2019-02-06 17:13:46, 0, 0, 0, 0, 6
2019-02-06 17:19:51, 0, 0, 0, 0, 6
2019-02-06 17:25:40, 0, 0, 0, 0, 6
2019-02-06 17:31:31, 0, 0, 0, 0, 6
2019-02-06 17:37:23, 0, 0, 0, 0, 6
2019-02-06 17:43:14, 0, 0, 0, 0, 6
2019-02-06 17:49:06, 0, 0, 0, 0, 6
2019-02-06 17:54:57, 0, 0, 0, 0, 6
2019-02-06 18:00:48, 0, 0, 0, 0, 6
2019-02-06 18:06:40, 0, 0, 0, 0, 6
2019-02-06 18:12:32, 0, 0, 0, 0, 6
2019-02-06 18:18:36, 0, 0, 0, 0, 6
2019-02-06 18:24:25, 0, 0, 0, 0, 6
2019-02-06 18:30:17, 0, 0, 0, 0, 6
2019-02-06 18:36:09, 0, 0, 0, 0, 6
2019-02-06 18:41:59, 0, 0, 0, 0, 6
2019-02-06 18:47:51, 0, 0, 0, 0, 6
2019-02-06 18:53:43, 0, 0, 0, 0, 6
2019-02-06 18:59:34, 0, 0, 0, 0, 6
2019-02-06 19:05:25, 0, 0, 0, 0, 6
2019-02-06 19:11:16, 0, 0, 0, 0, 6
2019-02-06 19:17:20, 0, 0, 0, 0, 6
2019-02-06 19:23:09, 0, 0, 0, 0, 6
2019-02-06 19:29:00, 0, 0, 0, 0, 6
2019-02-06 19:34:52, 0, 0, 0, 0, 6
2019-02-06 19:40:43, 0, 0, 0, 0, 6
2019-02-06 19:46:34, 0, 0, 0, 0, 6
2019-02-06 19:52:26, 0, 0, 0, 0, 6
2019-02-06 19:58:18, 0, 0, 0, 0, 6
2019-02-06 20:04:09, 0, 0, 0, 0, 6
2019-02-06 20:10:01, 0, 0, 0, 0, 6
2019-02-06 20:16:06, 0, 0, 0, 0, 6
2019-02-06 20:21:55, 0, 0, 0, 0, 6
2019-02-06 20:27:46, 0, 0, 0, 0, 6
2019-02-06 20:33:38, 0, 0, 0, 0, 6
2019-02-06 20:39:30, 0, 0, 0, 0, 6
2019-02-06 20:45:23, 0, 0, 0, 0, 6
2019-02-06 20:51:14, 0, 0, 0, 0, 6
2019-02-06 20:57:06, 0, 0, 0, 0, 6
2019-02-06 21:02:58, 0, 0, 0, 0, 6
2019-02-06 21:08:50, 0, 0, 0, 0, 6
2019-02-06 21:14:42, 0, 0, 0, 0, 6
2019-02-06 21:20:48, 0, 0, 0, 0, 6
2019-02-06 21:26:38, 0, 0, 0, 0, 6
2019-02-06 21:32:31, 0, 0, 0, 0, 6
2019-02-06 21:38:23, 0, 0, 0, 0, 6
2019-02-06 21:44:15, 0, 0, 0, 0, 6
2019-02-06 21:50:07, 0, 0, 0, 0, 6
2019-02-06 21:55:59, 0.00075657, 0.0075657, 0, 0, 6
2019-02-06 22:01:51, 0.00428176, 0.0428176, 0, 0, 6
2019-02-06 22:07:43, 0.00596793, 0.0596793, 0, 0, 6
2019-02-06 22:13:35, 0.011767, 0.11767, 0, 0, 6
2019-02-06 22:19:40, 0.023153, 0.23153, 0, 0, 6
2019-02-06 22:25:30, 0.023823, 0.23823, 0, 0, 6
2019-02-06 22:31:23, 0.0174382, 0.174382, 0, 0, 6
2019-02-06 22:37:15, 0.0133852, 0.133852, 0, 0, 6
2019-02-06 22:43:06, 0.00743925, 0.0743925, 0, 0, 6
2019-02-06 22:48:57, 0.00643, 0.0643, 0, 0, 6
2019-02-06 22:54:48, 0.0123734, 0.123734, 0, 0, 6
2019-02-06 23:00:40, 0.0126487, 0.126487, 0, 0, 6
2019-02-06 23:06:31, 0.00512728, 0.0512728, 0, 0, 6
2019-02-06 23:12:22, 0.000376613, 0.00376613, 0, 0, 6
2019-02-06 23:18:27, 0, 0, 0, 0, 6
2019-02-06 23:24:17, 1.42688e-05, 0.000142688, 0, 0, 6
2019-02-06 23:30:08, 1.42716e-05, 0.000142716, 0, 0, 6
2019-02-06 23:35:59, 0, 0, 0, 0, 6
2019-02-06 23:41:51, 0, 0, 0, 0, 6
2019-02-06 23:47:43, 0, 0, 0, 0, 6
2019-02-07 00:05:16, 0, 0, 0, 0, 6
2019-02-07 00:11:08, 0, 0, 0, 0, 6
2019-02-07 00:17:13, 3.52756e-05, 0.000352756, 0, 0, 6
2019-02-07 00:23:03, 5.20534e-05, 0.000520534, 0, 0, 6
2019-02-07 00:28:55, 1.81063e-05, 0.000181063, 0, 0, 6
2019-02-07 00:34:47, 0, 0, 0, 0, 6
2019-02-07 00:40:39, 1.72209e-05, 0.000172209, 0, 0, 6
2019-02-07 00:46:31, 1.72759e-05, 0.000172759, 0, 0, 6
2019-02-07 00:52:23, 0, 0, 0, 0, 6
2019-02-07 00:58:16, 0, 0, 0, 0, 6
2019-02-07 01:04:09, 0, 0, 0, 0, 6
2019-02-07 01:10:01, 0, 0, 0, 0, 6
2019-02-07 01:16:07, 0, 0, 0, 0, 6
2019-02-07 01:21:57, 0, 0, 0, 0, 6
2019-02-07 01:27:49, 0, 0, 0, 0, 6
2019-02-07 01:33:41, 1.45922e-05, 0.000145922, 0, 0, 6
2019-02-07 01:39:32, 1.82372e-05, 0.000182372, 0, 0, 6
2019-02-07 01:45:24, 0.000143242, 0.00143242, 0, 0, 6
2019-02-07 01:51:16, 0.00290736, 0.0290736, 0, 0, 6
2019-02-07 01:57:08, 0.0062023, 0.062023, 0, 0, 6
2019-02-07 02:03:00, 0.00792887, 0.0792887, 0, 0, 6
2019-02-07 02:08:53, 0.00981071, 0.0981071, 0, 0, 6
2019-02-07 02:14:45, 0.0131605, 0.131605, 0, 0, 6
2019-02-07 02:20:51, 0.0204057, 0.204057, 0, 0, 6
2019-02-07 02:26:40, 0.0252182, 0.252182, 0, 0, 6
2019-02-07 02:32:33, 0.027906, 0.27906, 0, 0, 6
2019-02-07 02:38:25, 0.0275226, 0.275226, 0, 0, 6
2019-02-07 02:44:17, 0.0258692, 0.258692, 0, 0, 6
2019-02-07 02:50:08, 0.0251282, 0.251282, 0, 0, 6
2019-02-07 02:56:00, 0.0287098, 0.287098, 0, 0, 6
2019-02-07 03:01:53, 0.0335091, 0.335091, 0, 0, 6
2019-02-07 03:07:44, 0.0394692, 0.394692, 0, 0, 6
2019-02-07 03:13:37, 0.0456845, 0.456845, 0, 0, 6
2019-02-07 03:19:42, 0.0520455, 0.520455, 0, 0, 6
2019-02-07 03:25:32, 0.0506315, 0.506315, 0, 0, 6
2019-02-07 03:31:25, 0.0478095, 0.478095, 0, 0, 6
2019-02-07 03:37:17, 0.0420289, 0.420289, 0, 0, 6
2019-02-07 03:43:09, 0.0368189, 0.368189, 0, 0, 6
2019-02-07 03:49:01, 0.0300865, 0.300865, 0, 0, 6
2019-02-07 03:54:53, 0.0216376, 0.216376, 0, 0, 6
2019-02-07 04:00:46, 0.0163829, 0.163829, 0, 0, 6
2019-02-07 04:06:39, 0.0121279, 0.121279, 0, 0, 6
2019-02-07 04:12:33, 0.00813319, 0.0813319, 0, 0, 6
2019-02-07 04:18:39, 0.00767684, 0.0767684, 0, 0, 6
2019-02-07 04:24:30, 0.00672531, 0.0672531, 0, 0, 6
2019-02-07 04:30:23, 0.00714427, 0.0714427, 0, 0, 6
2019-02-07 04:36:16, 0.00682945, 0.0682945, 0, 0, 6
2019-02-07 04:42:09, 0.00578011, 0.0578011, 0, 0, 6
2019-02-07 04:48:02, 0.0047211, 0.047211, 0, 0, 6
2019-02-07 04:53:54, 0.00374139, 0.0374139, 0, 0, 6
2019-02-07 04:59:46, 0.00278808, 0.0278808, 0, 0, 6
2019-02-07 05:05:39, 0.00216239, 0.0216239, 0, 0, 6
2019-02-07 05:11:31, 0.00238987, 0.0238987, 0, 0, 6